Tracking 29892 objects as of 21-Nov-2024
HD Live streaming from Space Station
objects crossing your sky now

FENGYUN 1C DEB

Track FENGYUN 1C DEB now!
10-day predictions


NORAD ID: 31966
Int'l Code: 1999-025CNT
Perigee: 631.9 km
Apogee: 770.2 km
Inclination: 99.0 °
Period: 98.6 minutes
Semi major axis: 7072 km
RCS: 0.0117 m2 (small)
Launch date: May 10, 1999
Source: People's Republic of China (PRC)
Launch site: Taiyaun Space Center, China (TSC)

Note: This is SATELLITE DEBRIS
Your satellite tracking list
Your tracking list is empty




NASA's NSSDC Master Catalog

Two Line Element Set (TLE):
1 31966U 99025CNT 24324.03829166  .00006330  00000-0  12502-2 0  9994
2 31966  98.9857  74.8556 0097815  27.5755 333.0583 14.59779416600553
Source of the keplerian elements: AFSPC